Location: Cudham
(51.3000°N, 0.0667°E)
Time: 16:34:03
(UTC+00:00)

Cosmos 1697 Rocket - Pass Details

Date: 19 May 2025
Orbit: 830 x 844 km, 71.0° (Epoch: 12 June)

Event Time Altitude Azimuth Distance (km) Brightness Sun altitude
Rises 21:16:28 0° 328° (NNW) 3,407 8.0 -10.6°
Reaches altitude 10° 21:18:55 10° 326° (NW) 2,470 6.7 -10.8°
Maximum altitude 21:24:32 67° 245° (WSW) 916 2.9 -11.4°
Enters shadow 21:29:25 14° 165° (SSE) 2,195 4.3 -11.8°
